| time (UTC) | temp F | wind direction | speed MPH | gust MPH | rain 1hr in | rain 24hr in | rain mn in | humidity % | barometer mb |
| 20260510110932 | 39 | 122 | 0.0 | 2.0 | 0.00 | 0.00 | 0.00 | 92 | 1027.3 |
| 20260510105932 | 39 | 317 | 0.0 | 0.0 | 0.00 | 0.00 | 0.00 | 91 | 1027.3 |
| 20260510104933 | 39 | 318 | 0.0 | 0.0 | 0.00 | 0.00 | 0.00 | 91 | 1027.0 |
| 20260510103932 | 39 | 318 | 0.0 | 1.0 | 0.00 | 0.00 | 0.00 | 91 | 1027.0 |
| 20260510102933 | 39 | 317 | 0.0 | 1.0 | 0.00 | 0.00 | 0.00 | 91 | 1026.9 |
| 20260510101930 | 39 | 317 | 0.0 | 1.0 | 0.00 | 0.00 | 0.00 | 91 | 1026.9 |
| 20260510100930 | 39 | 318 | 0.0 | 1.0 | 0.00 | 0.00 | 0.00 | 91 | 1026.9 |
| 20260510100259 | 38 | 39 | 0.0 | 1.0 | 0.00 | 0.00 | 0.00 | 92 | 1026.6 |
| 20260510095931 | 39 | 318 | 0.0 | 1.0 | 0.00 | 0.00 | 0.00 | 92 | 1026.8 |
| 20260510093859 | 38 | 108 | 0.0 | 1.0 | 0.00 | 0.00 | 0.00 | 93 | 1026.6 |
| 20260510092858 | 38 | 108 | 0.0 | 0.0 | 0.00 | 0.00 | 0.00 | 93 | 1026.4 |
| 20260510091859 | 38 | 108 | 0.0 | 0.0 | 0.00 | 0.00 | 0.00 | 92 | 1026.4 |
| 20260510090858 | 37 | 108 | 0.0 | 0.0 | 0.00 | 0.00 | 0.00 | 92 | 1026.4 |
| 20260510085900 | 38 | 108 | 0.0 | 0.0 | 0.00 | 0.00 | 0.00 | 91 | 1026.3 |
| 20260510085330 | 38 | 108 | 0.0 | 0.0 | 0.00 | 0.00 | 0.00 | 90 | 1026.0 |
| 20260510083857 | 38 | 108 | 0.0 | 1.0 | 0.00 | 0.00 | 0.00 | 90 | 1026.0 |
| 20260510083347 | 39 | 106 | 0.0 | 1.0 | 0.00 | 0.00 | 0.00 | 89 | 1026.0 |
| 20260510081856 | 39 | 106 | 0.0 | 1.0 | 0.00 | 0.00 | 0.00 | 88 | 1026.1 |
| 20260510080857 | 39 | 68 | 0.0 | 1.0 | 0.00 | 0.00 | 0.00 | 87 | 1026.3 |
| 20260510080806 | 40 | 110 | 0.0 | 3.0 | 0.00 | 0.00 | 0.00 | 87 | 1026.1 |
| 20260510074858 | 40 | 101 | 0.0 | 2.0 | 0.00 | 0.00 | 0.00 | 87 | 1026.4 |
| 20260510073839 | 40 | 113 | 0.0 | 2.0 | 0.00 | 0.00 | 0.00 | 86 | 1026.4 |
| 20260510072810 | 40 | 41 | 0.0 | 1.0 | 0.00 | 0.00 | 0.00 | 86 | 1026.5 |
| 20260510071812 | 40 | 31 | 0.0 | 2.0 | 0.00 | 0.00 | 0.00 | 85 | 1026.8 |
| 20260510070812 | 40 | 56 | 0.0 | 1.0 | 0.00 | 0.00 | 0.00 | 84 | 1026.8 |
| 20260510065810 | 40 | 56 | 0.0 | 1.0 | 0.00 | 0.00 | 0.00 | 84 | 1026.8 |
| 20260510064811 | 40 | 53 | 0.0 | 1.0 | 0.00 | 0.00 | 0.00 | 84 | 1026.8 |
| 20260510063810 | 40 | 53 | 0.0 | 1.0 | 0.00 | 0.00 | 0.00 | 84 | 1026.9 |
| 20260510062750 | 40 | 29 | 0.0 | 2.0 | 0.00 | 0.00 | 0.00 | 84 | 1026.8 |
| 20260510061732 | 40 | 117 | 0.0 | 3.0 | 0.00 | 0.00 | 0.00 | 84 | 1026.9 |
| 20260510060728 | 41 | 125 | 0.0 | 2.0 | 0.00 | 0.00 | 0.00 | 84 | 1026.6 |
| 20260510055727 | 41 | 67 | 0.0 | 1.0 | 0.00 | 0.00 | 0.00 | 84 | 1026.8 |
| 20260510054727 | 41 | 67 | 0.0 | 4.0 | 0.00 | 0.00 | 0.00 | 83 | 1026.8 |
| 20260510054212 | 41 | 343 | 1.0 | 5.0 | 0.00 | 0.00 | 0.00 | 83 | 1026.9 |
| 20260510052726 | 41 | 308 | 2.0 | 7.0 | 0.00 | 0.00 | 0.00 | 82 | 1027.0 |
| 20260510051725 | 41 | 354 | 2.0 | 6.0 | 0.00 | 0.00 | 0.00 | 82 | 1026.9 |
| 20260510050713 | 41 | 308 | 0.0 | 5.0 | 0.00 | 0.00 | 0.00 | 81 | 1027.0 |
| 20260510050154 | 41 | 124 | 0.0 | 2.0 | 0.00 | 0.00 | 0.00 | 81 | 1026.9 |
| 20260510044703 | 41 | 333 | 2.0 | 8.0 | 0.00 | 0.00 | 0.00 | 82 | 1026.8 |
| 20260510043705 | 41 | 319 | 0.0 | 3.0 | 0.00 | 0.00 | 0.00 | 81 | 1027.1 |
| 20260510042703 | 41 | 324 | 1.0 | 5.0 | 0.00 | 0.00 | 0.00 | 82 | 1027.1 |
| 20260510041702 | 41 | 67 | 3.0 | 9.0 | 0.00 | 0.00 | 0.00 | 82 | 1027.1 |
| 20260510040702 | 41 | 347 | 3.0 | 11.0 | 0.00 | 0.00 | 0.00 | 82 | 1026.8 |
| 20260510035702 | 42 | 8 | 4.0 | 11.0 | 0.00 | 0.00 | 0.00 | 82 | 1026.9 |
| 20260510034702 | 42 | 326 | 3.0 | 9.0 | 0.00 | 0.00 | 0.00 | 81 | 1026.8 |
| 20260510033703 | 42 | 25 | 3.0 | 10.0 | 0.00 | 0.00 | 0.00 | 81 | 1026.5 |
| 20260510032702 | 43 | 85 | 1.0 | 4.0 | 0.00 | 0.00 | 0.00 | 81 | 1026.3 |
| 20260510031702 | 43 | 40 | 2.0 | 9.0 | 0.00 | 0.00 | 0.00 | 80 | 1026.0 |
| 20260510030700 | 43 | 36 | 1.0 | 6.0 | 0.00 | 0.00 | 0.00 | 81 | 1026.0 |
| 20260510025700 | 43 | 262 | 3.0 | 8.0 | 0.00 | 0.00 | 0.00 | 81 | 1025.9 |
| 20260510024646 | 43 | 336 | 4.0 | 15.0 | 0.00 | 0.00 | 0.00 | 81 | 1025.4 |
| 20260510023640 | 43 | 322 | 8.0 | 17.0 | 0.00 | 0.00 | 0.00 | 81 | 1024.7 |
| 20260510022641 | 43 | 304 | 5.0 | 14.0 | 0.00 | 0.00 | 0.00 | 80 | 1024.5 |
| 20260510021639 | 44 | 333 | 6.0 | 15.0 | 0.00 | 0.00 | 0.00 | 79 | 1024.1 |
| 20260510020641 | 44 | 25 | 4.0 | 16.0 | 0.00 | 0.00 | 0.00 | 76 | 1023.7 |
| 20260510015639 | 45 | 319 | 9.0 | 22.0 | 0.00 | 0.00 | 0.00 | 73 | 1022.9 |
| 20260510015122 | 47 | 325 | 10.0 | 22.0 | 0.00 | 0.00 | 0.00 | 69 | 1022.4 |
| 20260510013616 | 49 | 4 | 11.0 | 29.0 | 0.00 | 0.00 | 0.00 | 62 | 1021.7 |
| 20260510012617 | 53 | 23 | 7.0 | 19.0 | 0.00 | 0.00 | 0.00 | 54 | 1021.1 |
| 20260510011610 | 59 | 18 | 6.0 | 14.0 | 0.00 | 0.00 | 0.00 | 38 | 1020.8 |
| 20260510010608 | 62 | 314 | 8.0 | 18.0 | 0.00 | 0.00 | 0.00 | 15 | 1020.2 |
| 20260510005606 | 62 | 349 | 9.0 | 21.0 | 0.00 | 0.00 | 0.00 | 16 | 1020.1 |
| 20260510004606 | 63 | 334 | 5.0 | 23.0 | 0.00 | 0.00 | 0.00 | 16 | 1019.8 |
| 20260510003607 | 62 | 307 | 5.0 | 15.0 | 0.00 | 0.00 | 0.00 | 17 | 1019.7 |
| 20260510002605 | 63 | 27 | 0.0 | 5.0 | 0.00 | 0.00 | 0.00 | 26 | 1019.6 |
| 20260510001604 | 62 | 43 | 3.0 | 6.0 | 0.00 | 0.00 | 0.00 | 26 | 1019.5 |
| 20260510000606 | 63 | 327 | 2.0 | 7.0 | 0.00 | 0.00 | 0.00 | 25 | 1019.5 |
| 20260510000039 | 63 | 322 | 0.0 | 3.0 | 0.00 | 0.00 | 0.00 | 26 | 1019.2 |
| 20260509234602 | 63 | 95 | 1.0 | 5.0 | 0.00 | 0.00 | 0.00 | 27 | 1019.0 |
| 20260509233601 | 64 | 120 | 0.0 | 3.0 | 0.00 | 0.00 | 0.00 | 25 | 1019.0 |
| 20260509232601 | 63 | 91 | 1.0 | 4.0 | 0.00 | 0.00 | 0.00 | 27 | 1018.8 |
| 20260509231601 | 63 | 131 | 2.0 | 6.0 | 0.00 | 0.00 | 0.00 | 27 | 1018.8 |
| 20260509230546 | 62 | 107 | 2.0 | 7.0 | 0.00 | 0.00 | 0.00 | 26 | 1018.8 |
| 20260509225545 | 63 | 51 | 1.0 | 3.0 | 0.00 | 0.00 | 0.00 | 27 | 1018.8 |
| 20260509224546 | 63 | 49 | 1.0 | 4.0 | 0.00 | 0.00 | 0.00 | 26 | 1019.0 |
| 20260509223547 | 63 | 108 | 1.0 | 4.0 | 0.00 | 0.00 | 0.00 | 27 | 1018.8 |
| 20260509222547 | 63 | 79 | 1.0 | 8.0 | 0.00 | 0.00 | 0.00 | 26 | 1018.8 |
| 20260509221546 | 63 | 79 | 2.0 | 5.0 | 0.00 | 0.00 | 0.00 | 26 | 1018.6 |
| 20260509220546 | 63 | 47 | 2.0 | 9.0 | 0.00 | 0.00 | 0.00 | 25 | 1018.7 |
| 20260509215545 | 62 | 215 | 2.0 | 6.0 | 0.00 | 0.00 | 0.00 | 26 | 1018.7 |
| 20260509214542 | 62 | 134 | 2.0 | 6.0 | 0.00 | 0.00 | 0.00 | 26 | 1018.8 |
| 20260509213540 | 63 | 29 | 3.0 | 10.0 | 0.00 | 0.00 | 0.00 | 26 | 1019.1 |
| 20260509212540 | 64 | 107 | 5.0 | 14.0 | 0.00 | 0.00 | 0.00 | 24 | 1018.7 |
| 20260509212014 | 65 | 126 | 3.0 | 10.0 | 0.00 | 0.00 | 0.00 | 24 | 1019.0 |
| 20260509210539 | 64 | 316 | 4.0 | 12.0 | 0.00 | 0.00 | 0.00 | 17 | 1018.8 |
| 20260509205538 | 65 | 325 | 7.0 | 19.0 | 0.00 | 0.00 | 0.00 | 18 | 1018.6 |
| 20260509204537 | 66 | 330 | 7.0 | 17.0 | 0.00 | 0.00 | 0.00 | 19 | 1018.4 |
| 20260509204022 | 65 | 342 | 4.0 | 8.0 | 0.00 | 0.00 | 0.00 | 18 | 1018.6 |
| 20260509202536 | 66 | 334 | 6.0 | 14.0 | 0.00 | 0.00 | 0.00 | 17 | 1018.6 |
| 20260509201536 | 66 | 273 | 5.0 | 14.0 | 0.00 | 0.00 | 0.00 | 19 | 1018.7 |
| 20260509200529 | 65 | 245 | 6.0 | 13.0 | 0.00 | 0.00 | 0.00 | 18 | 1018.7 |
| 20260509195524 | 64 | 335 | 5.0 | 14.0 | 0.00 | 0.00 | 0.00 | 18 | 1018.7 |
| 20260509195005 | 64 | 19 | 5.0 | 13.0 | 0.00 | 0.00 | 0.00 | 19 | 1018.7 |
| 20260509193522 | 65 | 309 | 5.0 | 17.0 | 0.00 | 0.00 | 0.00 | 20 | 1018.8 |
| 20260509192512 | 65 | 259 | 6.0 | 14.0 | 0.00 | 0.00 | 0.00 | 18 | 1019.0 |
| 20260509191512 | 65 | 314 | 7.0 | 21.0 | 0.00 | 0.00 | 0.00 | 19 | 1019.0 |
| 20260509190512 | 65 | 338 | 6.0 | 16.0 | 0.00 | 0.00 | 0.00 | 19 | 1019.0 |
| 20260509185508 | 65 | 305 | 6.0 | 15.0 | 0.00 | 0.00 | 0.00 | 18 | 1019.1 |
| 20260509184950 | 64 | 244 | 5.0 | 12.0 | 0.00 | 0.00 | 0.00 | 19 | 1019.2 |
| 20260509183943 | 64 | 224 | 5.0 | 12.0 | 0.00 | 0.00 | 0.00 | 20 | 1019.2 |
| 20260509182505 | 63 | 56 | 3.0 | 11.0 | 0.00 | 0.00 | 0.00 | 21 | 1019.1 |
| 20260509182422 | 63 | 262 | 4.0 | 9.0 | 0.00 | 0.00 | 0.00 | 23 | 1019.2 |
| 20260509180455 | 63 | 321 | 6.0 | 18.0 | 0.00 | 0.00 | 0.00 | 22 | 1019.3 |
| 20260509175456 | 63 | 322 | 6.0 | 15.0 | 0.00 | 0.00 | 0.00 | 23 | 1019.3 |
| 20260509174454 | 63 | 244 | 3.0 | 12.0 | 0.00 | 0.00 | 0.00 | 22 | 1019.3 |
| 20260509173454 | 62 | 318 | 7.0 | 17.0 | 0.00 | 0.00 | 0.00 | 24 | 1019.5 |
| 20260509172928 | 62 | 316 | 7.0 | 23.0 | 0.00 | 0.00 | 0.00 | 22 | 1019.6 |
| 20260509171929 | 62 | 255 | 9.0 | 26.0 | 0.00 | 0.00 | 0.00 | 22 | 1019.6 |
| 20260509170446 | 62 | 312 | 7.0 | 25.0 | 0.00 | 0.00 | 0.00 | 21 | 1019.5 |
| 20260509165446 | 62 | 315 | 13.0 | 27.0 | 0.00 | 0.00 | 0.00 | 21 | 1019.6 |
| 20260509164446 | 62 | 293 | 7.0 | 19.0 | 0.00 | 0.00 | 0.00 | 21 | 1019.3 |
| 20260509163444 | 62 | 325 | 5.0 | 13.0 | 0.00 | 0.00 | 0.00 | 25 | 1019.1 |
| 20260509162444 | 62 | 252 | 6.0 | 14.0 | 0.00 | 0.00 | 0.00 | 24 | 1019.2 |
| 20260509161440 | 62 | 238 | 2.0 | 8.0 | 0.00 | 0.00 | 0.00 | 25 | 1019.2 |
| 20260509160916 | 61 | 153 | 4.0 | 11.0 | 0.00 | 0.00 | 0.00 | 27 | 1019.3 |
| 20260509155433 | 62 | 340 | 1.0 | 7.0 | 0.00 | 0.00 | 0.00 | 27 | 1019.1 |
| 20260509154423 | 60 | 208 | 2.0 | 5.0 | 0.00 | 0.00 | 0.00 | 28 | 1019.2 |
| 20260509153423 | 60 | 140 | 1.0 | 3.0 | 0.00 | 0.00 | 0.00 | 29 | 1019.5 |
| 20260509153333 | 60 | 34 | 1.0 | 4.0 | 0.00 | 0.00 | 0.00 | 28 | 1019.3 |
| 20260509151418 | 58 | 134 | 1.0 | 6.0 | 0.00 | 0.00 | 0.00 | 31 | 1019.6 |
| 20260509150418 | 58 | 44 | 1.0 | 4.0 | 0.00 | 0.00 | 0.00 | 31 | 1019.6 |
| 20260509145421 | 57 | 113 | 1.0 | 3.0 | 0.00 | 0.00 | 0.00 | 31 | 1019.6 |
| 20260509144419 | 56 | 256 | 1.0 | 2.0 | 0.00 | 0.00 | 0.00 | 32 | 1019.8 |
| 20260509143830 | 54 | 210 | 1.0 | 3.0 | 0.00 | 0.00 | 0.00 | 34 | 1020.0 |
| 20260509142354 | 54 | 315 | 0.0 | 4.0 | 0.00 | 0.00 | 0.00 | 36 | 1019.8 |
| 20260509141354 | 49 | 316 | 0.0 | 2.0 | 0.00 | 0.00 | 0.00 | 47 | 1020.1 |
| 20260509140841 | 44 | 316 | 1.0 | 3.0 | 0.00 | 0.00 | 0.00 | 60 | 1020.1 |
| 20260509135350 | 41 | 281 | 0.0 | 3.0 | 0.00 | 0.00 | 0.00 | 66 | 1020.2 |
| 20260509134839 | 42 | 314 | 0.0 | 2.0 | 0.00 | 0.00 | 0.00 | 62 | 1020.1 |
| 20260509133347 | 43 | 312 | 0.0 | 1.0 | 0.00 | 0.00 | 0.00 | 56 | 1020.1 |
| 20260509132347 | 46 | 311 | 0.0 | 2.0 | 0.00 | 0.00 | 0.00 | 51 | 1020.0 |
| 20260509131342 | 48 | 308 | 1.0 | 3.0 | 0.00 | 0.00 | 0.00 | 46 | 1019.8 |
| 20260509130343 | 49 | 203 | 2.0 | 5.0 | 0.00 | 0.00 | 0.00 | 43 | 1019.6 |
| 20260509125337 | 49 | 225 | 3.0 | 6.0 | 0.00 | 0.00 | 0.00 | 42 | 1019.3 |
| 20260509124331 | 49 | 256 | 1.0 | 5.0 | 0.00 | 0.00 | 0.00 | 42 | 1019.2 |
| 20260509123328 | 50 | 113 | 3.0 | 12.0 | 0.00 | 0.00 | 0.00 | 42 | 1018.7 |
| 20260509122328 | 50 | 79 | 2.0 | 12.0 | 0.00 | 0.00 | 0.00 | 41 | 1018.7 |
| 20260509121329 | 51 | 274 | 9.0 | 16.0 | 0.00 | 0.00 | 0.00 | 40 | 1017.9 |
| 20260509120801 | 50 | 245 | 10.0 | 20.0 | 0.00 | 0.00 | 0.00 | 41 | 1017.4 |
| 20260509115327 | 50 | 245 | 10.0 | 18.0 | 0.00 | 0.00 | 0.00 | 42 | 1017.4 |
| 20260509114800 | 50 | 242 | 12.0 | 19.0 | 0.00 | 0.00 | 0.00 | 42 | 1017.6 |
| 20260509113322 | 51 | 231 | 13.0 | 23.0 | 0.00 | 0.00 | 0.00 | 41 | 1017.6 |
| 20260509112758 | 51 | 238 | 13.0 | 23.0 | 0.00 | 0.00 | 0.00 | 40 | 1017.4 |
| 20260509111753 | 50 | 231 | 10.0 | 18.0 | 0.00 | 0.00 | 0.00 | 42 | 1017.6 |